Worthington, MN

12:42 PM CDT on March 24, 2017 (GMT -0500)
Worthington Municipal

Weather History for KOTG - November, 2012

Change the Weather History Date:

Thursday, November 8, 2012

  Actual Average Record
Temperature  
Mean Temperature 45 °F -  
Max Temperature 55 °F 42 °F 77 °F (2006)
Min Temperature 35 °F 27 °F -6 °F (1991)
Degree Days  
Heating Degree Days 20    
Moisture  
Dew Point 30 °F    
Average Humidity 63    
Maximum Humidity 81    
Minimum Humidity 41    
Precipitation  
Precipitation 0.00 in - - ()
Sea Level Pressure  
Sea Level Pressure 29.92 in    
Wind  
Wind Speed 15 mph (South)    
Max Wind Speed 21 mph    
Max Gust Speed 29 mph    
Visibility 9 miles    
Events      
Averages and records for this station are not official NWS values.
T = Trace of Precipitation, MM = Missing Value Source: NWS Daily Summary

Daily Weather History Graph

Daily Weather History Graph

Search for Another Location

Airport or City:

Trip Planner

Search our weather history database for the weather conditions in past years. The results will help you decide how hot, cold, wet, or windy it might be!

Date:

Astronomy

Nov. 08, 2012 Rise Set
Actual Time 7:07 AM CST 5:03 PM CST
Civil Twilight 6:37 AM CST 5:34 PM CST
Nautical Twilight 6:03 AM CST 6:08 PM CST
Astronomical Twilight 5:29 AM CST 6:42 PM CST
Moon 12:53 AM CST (11/8) 1:54 PM CST (11/8)
Length of Visible Light 10h 56m
Length of Day
9h 55m
Waning Crescent, 32% of the Moon is Illuminated
Nov 8
Waning Crescent
Nov 13
New
Nov 20
First Quarter
Nov 28
Full
Dec 6
Last Quarter

Hourly Weather History & Observations

Time (CST) Temp. Windchill Dew Point Humidity Pressure Visibility Wind Dir Wind Speed Gust Speed Precip Events Conditions
12:15 AM 37.4 °F 27.8 °F 28.4 °F 70% 29.97 in 10.0 mi SSE 17.3 mph 24.2 mph N/A   Clear
12:35 AM 35.6 °F 25.9 °F 28.4 °F 75% 29.96 in 10.0 mi South 16.1 mph 20.7 mph N/A   Clear
12:55 AM 35.6 °F 24.8 °F 28.4 °F 75% 29.95 in 10.0 mi South 19.6 mph 23.0 mph N/A   Clear
1:15 AM 35.6 °F 25.2 °F 28.4 °F 75% 29.95 in 10.0 mi South 18.4 mph - N/A   Clear
1:35 AM 35.6 °F 25.5 °F 28.4 °F 75% 29.94 in 10.0 mi South 17.3 mph 24.2 mph N/A   Clear
1:55 AM 37.4 °F 27.2 °F 28.4 °F 70% 29.93 in 10.0 mi South 19.6 mph 27.6 mph N/A   Clear
2:15 AM 35.6 °F 24.8 °F 28.4 °F 75% 29.93 in 10.0 mi South 19.6 mph 24.2 mph N/A   Clear
2:35 AM 35.6 °F 24.8 °F 26.6 °F 70% 29.92 in 10.0 mi South 19.6 mph 26.5 mph N/A   Clear
2:55 AM 35.6 °F 24.5 °F 26.6 °F 70% 29.92 in 10.0 mi South 20.7 mph 26.5 mph N/A   Clear
3:15 AM 35.6 °F 24.8 °F 26.6 °F 70% 29.91 in 10.0 mi South 19.6 mph 26.5 mph N/A   Clear
3:35 AM 35.6 °F 24.5 °F 26.6 °F 70% 29.91 in 10.0 mi South 20.7 mph - N/A   Clear
3:55 AM 35.6 °F 25.2 °F 26.6 °F 70% 29.90 in 10.0 mi South 18.4 mph 28.8 mph N/A   Clear
4:15 AM 35.6 °F 24.8 °F 26.6 °F 70% 29.89 in 10.0 mi South 19.6 mph 23.0 mph N/A   Clear
4:35 AM 35.6 °F 25.2 °F 26.6 °F 70% 29.88 in 10.0 mi South 18.4 mph - N/A   Clear
4:55 AM 35.6 °F 25.2 °F 26.6 °F 70% 29.87 in 10.0 mi SSE 18.4 mph - N/A   Clear
5:15 AM 35.6 °F 24.5 °F 26.6 °F 70% 29.86 in 10.0 mi South 20.7 mph 24.2 mph N/A   Clear
5:35 AM 35.6 °F 25.2 °F 26.6 °F 70% 29.87 in 10.0 mi South 18.4 mph 24.2 mph N/A   Clear
5:55 AM 35.6 °F 25.9 °F 26.6 °F 70% 29.87 in 10.0 mi South 16.1 mph 21.9 mph N/A   Clear
6:15 AM 35.6 °F 25.9 °F 26.6 °F 70% 29.87 in 10.0 mi South 16.1 mph - N/A   Clear
6:55 AM 37.4 °F 27.5 °F 28.4 °F 70% 29.86 in 10.0 mi South 18.4 mph - N/A   Clear
7:15 AM 37.4 °F 27.5 °F 28.4 °F 70% 29.87 in 10.0 mi South 18.4 mph - N/A   Clear
7:35 AM 37.4 °F 27.8 °F 28.4 °F 70% 29.87 in 10.0 mi South 17.3 mph - N/A   Clear
7:55 AM 39.2 °F 30.8 °F 28.4 °F 65% 29.89 in 10.0 mi SSW 15.0 mph - N/A   Clear
8:15 AM 39.2 °F 30.5 °F 28.4 °F 65% 29.89 in 10.0 mi South 16.1 mph 20.7 mph N/A   Clear
8:35 AM 41.0 °F 32.5 °F 28.4 °F 61% 29.89 in 10.0 mi SSW 17.3 mph - N/A   Clear
8:55 AM 42.8 °F 35.4 °F 28.4 °F 57% 29.91 in 10.0 mi SSW 15.0 mph - N/A   Clear
9:15 AM 42.8 °F 34.5 °F 30.2 °F 61% 29.91 in 10.0 mi SSW 18.4 mph - N/A   Clear
9:35 AM 44.6 °F 36.6 °F 30.2 °F 57% 29.91 in 10.0 mi SSW 19.6 mph - N/A   Clear
9:55 AM 46.4 °F 39.8 °F 30.2 °F 53% 29.91 in 10.0 mi SSW 16.1 mph 19.6 mph N/A   Clear
10:15 AM 46.4 °F 39.5 °F 30.2 °F 53% 29.91 in 10.0 mi SSW 17.3 mph 23.0 mph N/A   Clear
10:35 AM 48.2 °F - 30.2 °F 50% 29.92 in 10.0 mi SSW 17.3 mph - N/A   Clear
10:55 AM 48.2 °F - 30.2 °F 50% 29.92 in 10.0 mi SW 16.1 mph - N/A   Clear
11:15 AM 50.0 °F - 32.0 °F 50% 29.92 in 10.0 mi SW 13.8 mph - N/A   Clear
11:35 AM 51.8 °F - 32.0 °F 47% 29.91 in 10.0 mi SSW 11.5 mph - N/A   Clear
11:55 AM 51.8 °F - 32.0 °F 47% 29.91 in 10.0 mi SSW 12.7 mph - N/A   Clear
12:15 PM 51.8 °F - 30.2 °F 44% 29.91 in 10.0 mi SW 6.9 mph - N/A   Clear
12:35 PM 51.8 °F - 30.2 °F 44% 29.91 in 10.0 mi SW 4.6 mph - N/A   Clear
12:55 PM 51.8 °F - 30.2 °F 44% 29.90 in 10.0 mi Calm Calm - N/A   Clear
1:15 PM 53.6 °F - 30.2 °F 41% 29.90 in 10.0 mi WSW 3.5 mph - N/A   Clear
1:35 PM 53.6 °F - 30.2 °F 41% 29.90 in 10.0 mi Calm Calm - N/A   Clear
1:55 PM 53.6 °F - 30.2 °F 41% 29.90 in 10.0 mi Calm Calm - N/A   Clear
2:15 PM 53.6 °F - 32.0 °F 44% 29.90 in 10.0 mi NNW 4.6 mph - N/A   Clear
2:35 PM 53.6 °F - 32.0 °F 44% 29.90 in 10.0 mi North 4.6 mph - N/A   Clear
2:55 PM 53.6 °F - 32.0 °F 44% 29.91 in 10.0 mi NNE 6.9 mph - N/A   Clear
3:15 PM 55.4 °F - 32.0 °F 41% 29.91 in 10.0 mi NE 8.1 mph - N/A   Clear
3:35 PM 55.4 °F - 32.0 °F 41% 29.92 in 10.0 mi NE 6.9 mph - N/A   Clear
3:55 PM 53.6 °F - 32.0 °F 44% 29.93 in 10.0 mi NNE 9.2 mph - N/A   Clear
4:15 PM 53.6 °F - 32.0 °F 44% 29.93 in 10.0 mi NNE 8.1 mph - N/A   Clear
4:35 PM 53.6 °F - 33.8 °F 47% 29.93 in 10.0 mi NNE 6.9 mph - N/A   Clear
4:55 PM 51.8 °F - 33.8 °F 50% 29.93 in 10.0 mi NNE 6.9 mph - N/A   Clear
5:15 PM 48.2 °F - 32.0 °F 54% 29.93 in 10.0 mi NNE 8.1 mph - N/A   Clear
5:35 PM 46.4 °F 41.9 °F 32.0 °F 57% 29.94 in 10.0 mi North 9.2 mph - N/A   Clear
5:55 PM 46.4 °F 41.5 °F 32.0 °F 57% 29.95 in 10.0 mi North 10.4 mph - N/A   Clear
6:15 PM 46.4 °F 41.9 °F 33.8 °F 62% 29.95 in 10.0 mi North 9.2 mph - N/A   Clear
6:35 PM 44.6 °F 39.2 °F 32.0 °F 61% 29.95 in 10.0 mi North 10.4 mph - N/A   Clear
6:55 PM 44.6 °F 37.8 °F 32.0 °F 61% 29.95 in 10.0 mi North 15.0 mph 18.4 mph N/A   Clear
7:15 PM 41.0 °F 32.8 °F 32.0 °F 70% 29.96 in 10.0 mi North 16.1 mph - N/A   Clear
7:35 PM 39.2 °F 32.0 °F 32.0 °F 75% 29.96 in 10.0 mi North 11.5 mph - N/A   Clear
7:55 PM 39.2 °F 32.0 °F 32.0 °F 75% 29.97 in 9.0 mi North 11.5 mph - N/A   Clear
8:15 PM 37.4 °F 28.5 °F 32.0 °F 81% 29.97 in 8.0 mi North 15.0 mph - N/A   Clear
8:35 PM 37.4 °F 29.3 °F 30.2 °F 75% 29.97 in 7.0 mi North 12.7 mph - N/A   Clear
8:55 PM 37.4 °F 28.9 °F 30.2 °F 75% 29.97 in 7.0 mi North 13.8 mph - N/A   Clear
9:15 PM 37.4 °F 29.3 °F 30.2 °F 75% 29.98 in 6.0 mi North 12.7 mph - N/A   Clear
9:35 PM 37.4 °F 29.3 °F 30.2 °F 75% 29.98 in 5.0 mi North 12.7 mph - N/A   Clear
9:55 PM 35.6 °F 28.0 °F 30.2 °F 81% 29.98 in 5.0 mi North 10.4 mph - N/A   Clear
10:15 PM 35.6 °F 27.5 °F 30.2 °F 81% 29.98 in 5.0 mi North 11.5 mph - N/A   Scattered Clouds
10:35 PM 35.6 °F 27.5 °F 30.2 °F 81% 29.97 in 5.0 mi North 11.5 mph - N/A   Mostly Cloudy
10:55 PM 35.6 °F 27.5 °F 30.2 °F 81% 29.97 in 5.0 mi North 11.5 mph - N/A   Mostly Cloudy
11:15 PM 35.6 °F 27.5 °F 30.2 °F 81% 29.97 in 4.0 mi North 11.5 mph - N/A   Partly Cloudy
11:35 PM 35.6 °F 27.1 °F 30.2 °F 81% 29.97 in 3.0 mi North 12.7 mph - N/A   Clear
11:55 PM 35.6 °F 27.5 °F 30.2 °F 81% 29.96 in 4.0 mi North 11.5 mph - N/A   Scattered Clouds